AirNav  
 
 1029 users online  

78FL Pomona Landing Airport
Pomona Park, Florida, USA

GOING TO POMONA PARK?


FAA INFORMATION EFFECTIVE 04 JANUARY 2018

Location

FAA Identifier: 78FL
Lat/Long: 29-30-07.8900N / 081-34-42.2700W
29-30.131500N / 081-34.704500W
29.5021917 / -81.5784083
(estimated)
Elevation: 50 ft. / 15 m (estimated)
Variation: 04W (1995)
From city: 1 mile W of POMONA PARK, FL
Time zone: UTC -5 (UTC -4 during Daylight Saving Time)
Zip code: 32181

Airport Operations

Airport use: Private use. Permission required prior to landing
Activation date: 12/1999
Control tower: no
ARTCC: JACKSONVILLE CENTER
FSS: GAINESVILLE FLIGHT SERVICE STATION
Attendance: UNATNDD
Wind indicator: yes
Segmented circle: no

Airport Communications

WX AWOS-3 at 28J (11 nm NW): 119.92 (386-312-2212)
WX AWOS-3 at FIN (19 nm E): 128.325 (386-437-7334)

Nearby radio navigation aids

VOR radial/distance  VOR name  Freq  Var
OMNr296/27.1ORMOND BEACH VORTAC112.6000E
SGJr211/30.2ST AUGUSTINE VOR/DME109.4006W
GNVr111/38.0GATORS VORTAC116.2004W
OCFr060/39.1OCALA VORTAC113.7000E

 
NDB name  Hdg/Dist  Freq  Var  ID
REYNOLDS179/28.233807WRYD .-. -.-- -..

Airport Services

Runway Information

Runway 2/20

Dimensions: 2760 x 100 ft. / 841 x 30 m
Surface: turf
Runway edge markings: RY 02/20 EDGES & DSPLCD THLDS MKD WITH CONC PADS.
RUNWAY 2  RUNWAY 20
Traffic pattern: leftleft
Displaced threshold: 800 ft.800 ft.
Obstructions: 40 ft. trees, 100 ft. from runway40 ft. trees, 80 ft. from runway

Airport Ownership and Management from official FAA records

Ownership: Privately-owned
Owner: SERENITY FARMS PROPERTIES LLC
119 POMONA LANDING ROAD
POMONA PARK, FL 32181
Phone 386-546-4466
Manager: R. WARREN
113 POMONA LANDING ROAD
POMONA PARK, FL 32181
Phone 386-546-4466

Airport Operational Statistics

Aircraft based on the field: 3
Single engine airplanes: 1
Ultralights: 2
    

Instrument Procedures

There are no published instrument procedures at 78FL.

Some nearby airports with instrument procedures:

28J - Palatka Municipal Airport - Lt. Kay Larkin Field (11 nm NW)
KFIN - Flagler Executive Airport (19 nm E)
KOMN - Ormond Beach Municipal Airport (27 nm SE)
KSGJ - Northeast Florida Regional Airport (30 nm NE)
KDED - DeLand Municipal Airport-Sidney H Taylor Field (30 nm SE)
 
Loc | Ops | Rwys | IFR | FBO | Links
Com | Nav | Svcs | Stats | Notes


 
Area around 78FL (Pomona Landing Airport)
 
Road maps at: MapQuest Bing Google
 
Aerial photo
WARNING: Photo may not be current or correct
Aerial photo of 78FL (Pomona Landing Airport)
Do you have a better or more recent aerial photo of Pomona Landing Airport that you would like to share? If so, please send us your photo.

 
Sectional chart

 
Airport distance calculator
Flying to Pomona Landing Airport? Find the distance to fly.

From to 78FL

Sunrise and sunset
Times for 20-Jan-2018
 Local
(UTC-5)
 Zulu
(UTC)
Morning civil twilight06:5711:57
Sunrise07:2212:22
Sunset17:5322:53
Evening civil twilight18:1823:18

Current date and time
Zulu (UTC)  20-Jan-2018 18:15:35
Local (UTC-5)  20-Jan-2018 13:15:35
 
METAR
K28J 
11nm NW 
201755Z AUTO 36003KT 10SM CLR 17/02 A3029 RMK AO2
KFIN 
19nm E 
201650Z 00000KT 7SM SKC 15/05 A3032
TAF
KSGJ 
31nm NE 
201720Z 2018/2118 VRB05KT P6SM SCT250 FM210000 00000KT P6SM BKN100 OVC250 FM211400 06006KT P6SM OVC250
KDAB 
33nm SE 
201720Z 2018/2118 06005KT P6SM FEW040 SCT120 FM210000 00000KT P6SM BKN100 FM211600 06007KT P6SM SCT040
KGNV 
39nm W 
201720Z 2018/2118 VRB03KT P6SM SCT250 FM210000 00000KT P6SM BKN100 OVC250 FM210600 00000KT 4SM BR BKN100 OVC250 FM211500 06004KT P6SM BKN250
NOTAMs
Click for the latest NOTAMs
NOTAMs are issued by the DoD/FAA and will open in a separate window not controlled by AirNav.

 

 
 

Would you like to see your business listed on this page?

 If your business provides an interesting product or service to pilots, flight crews, aircraft, or users of the Pomona Landing Airport, you should consider listing it here.  To start the listing process, click on the button below
 
Add a business
 

Other Pages about Pomona Landing Airport

Update a link
 
Copyright © AirNav, LLC. All rights reserved. Privacy Policy  Contact